Miscellaneous Local Product
Issued by NWS Hastings, NE

Home | Current Version | Previous Version | Text Only | Print | Product List | Glossary Off
Versions: 1 2 3 4 5 6 7 8 9 10 11 12 13 14 15 16 17 18 19 20 21 22 23 24 25 26 27 28 29 30 31 32 33 34 35 36 37 38 39 40 41 42 43 44 45 46 47 48 49 50

000
AXUS43 KGID 270902
MISGRI

GID CWA HOURLY WEATHER ROUNDUP
NATIONAL WEATHER SERVICE HASTINGS NE
300 AM CST FRI FEB 27 2015

NOTE: "FAIR" INDICATES FEW OR NO CLOUDS BELOW 12,000 FEET WITH NO
SIGNIFICANT WEATHER AND/OR OBSTRUCTIONS TO VISIBILITY.

...SOUTH CENTRAL NEBRASKA...

CITY           SKY/WX    TMP DP  RH WIND       PRES   REMARKS
GRAND ISLAND   CLEAR     -1  -7  75 NW3       30.53F
HASTINGS       CLEAR     -1  -7  75 CALM      30.50F
KEARNEY        CLEAR      0  -9  65 CALM      30.48F
ORD            CLEAR     -6 -12  75 CALM      30.50R
YORK             N/A     -2  -8  78 NW5       30.55S WCI -12
AURORA         CLEAR     -3  -8  77 N6        30.53F WCI -15
LEXINGTON      CLEAR     -1  -6  76 CALM      30.46F
HOLDREGE       CLEAR     -1  -7  73 CALM      30.47F
HEBRON         FAIR       0  -5  79 CALM      30.56F

...NEBRASKA PANHANDLE...

CITY           SKY/WX    TMP DP  RH WIND       PRES   REMARKS
CHADRON        CLEAR     -8 -13  78 CALM      30.31F
ALLIANCE       CLEAR      0  -5  79 SE7       30.26F WCI -13
SCOTTSBLUFF    CLOUDY     8   0  69 SE16      30.24F WCI -10
SIDNEY         CLOUDY     4  -4  69 SE10      30.23F WCI -11

...WESTERN AND NORTH CENTRAL NEBRASKA...

CITY           SKY/WX    TMP DP  RH WIND       PRES   REMARKS
VALENTINE      CLEAR     -6 -11  79 CALM      30.43S
AINSWORTH      CLEAR     -4  -9  80 SW5       30.43F WCI -15
ONEILL         CLEAR     -3  -7  84 W3        30.50S
BROKEN BOW     CLEAR     -6 -13  71 CALM      30.44F
IMPERIAL         N/A      7  -4  60 SE9       30.35F WCI  -7
NORTH PLATTE   CLEAR     -3  -8  79 CALM      30.42F
MCCOOK         CLOUDY     9  -2  61 E7        30.44F WCI  -2

...EASTERN NEBRASKA...

CITY           SKY/WX    TMP DP  RH WIND       PRES   REMARKS
NORFOLK        CLEAR     -5  -9  83 W6        30.54S WCI -18
SO SIOUX CITY  CLEAR     -4  -9  79 W3        30.59S
TEKAMAH        CLEAR     -2  -8  76 W3        30.61R
COLUMBUS       CLEAR     -6 -18  54 CALM      30.57S
ALBION         CLEAR     -7 -14  72 CALM      30.53S
OMAHA EPPLEY   CLEAR      2  -4  76 CALM      30.61S
MILLARD        CLEAR      2  -5  71 NW5       30.60S WCI  -7
LINCOLN        CLEAR     -2  -6  83 N5        30.60S WCI -12
NEBRASKA CITY  CLEAR      0  -6  74 NW6       30.58S WCI -11
BEATRICE       CLEAR     -2  -6  83 CALM      30.57F
FALLS CITY     CLEAR     -2  -7  79 CALM      30.60S

...NORTHERN KANSAS...

CITY           SKY/WX    TMP DP  RH WIND       PRES   REMARKS
GOODLAND       LGT SNOW  12   6  77 SE10      30.30F WCI  -1
HILL CITY      CLOUDY     9  -2  61 E7        30.48F WCI  -2
NORTON         PTSUNNY    9  -2  61 E6        30.45F WCI  -1
PHILLIPSBURG   PTCLDY     9   0  66 NE5       30.53S WCI   0
HAYS           CLOUDY    10  -6  48 E9        30.48F WCI  -2
RUSSELL        CLOUDY     7   2  80 E5        30.50S WCI  -2
CONCORDIA      PTCLDY     4  -1  80 CALM      30.56S
SALINA         PTCLDY     9   1  70 NE3       30.58F
TOPEKA         CLEAR      5  -2  72 NW3       30.62R



USA.gov is the U.S. government's official web portal to all federal, state and local government web resources and services.